Starlink 30274

operational
NORAD ID: 57672 Int'l Des: 2023-124 Owner: SPXS Country: US Constellation: starlink
LEOCIRCULAR

Über Starlink 30274

Beschreibung wird geladen...

Live-Position

3D-Globus wird geladen...

Nächste Überflüge

Höhenverlauf

Altitude vs Time

uPlot chart will show altitude changes over time

Zweizeiliger Elementsatz

1 57672U 23124K 26035.62137661 -.00000496 00000-0 -46242-5 0 9991
2 57672 53.1609 0.5485 0001342 97.8665 262.2488 15.30186506138500
Epoch: 4. Feb. 2026 • Age: 12 hours

Aktueller Status

Höhe 481.3 km
Geschwindigkeit 7.62 km/s
Subsatellitenpunkt -20.80°S, 17.68°E
Startdatum 22. Aug. 2023
Alter 2.4 years
Typ internet

Technische Details

Klassifizierung Payload
Masse 730.00 kg
Trockenmasse 700.00 kg
Gesamtmasse 730.00 kg
Länge 0.30 m
Durchmesser 4.10 m
Spannweite 29.00 m
Form Box + pan
Hersteller SPXS
Bus-Typ Starlink V2M
Phasenstatus In Orbit
Besitzer/Staat SPXS/US

Große Konstellationen

Loading constellations...